EW3281 Weather Reports


Display with metric or nautical units.
time (UTC)temp
F
wind
direction
speed
MPH
gust
MPH
rain 1hr
in
rain 24hr
in
rain mn
in
humidity
%
barometer
mb
20260509192035 59 58 0.0 0.0 0.00 0.01 0.00 75 1010.5
20260509191531 59 95 0.0 3.0 0.00 0.01 0.00 74 1010.5
20260509191029 59 59 0.0 3.0 0.00 0.01 0.00 74 1010.5
20260509190529 59 128 0.0 1.0 0.00 0.01 0.00 73 1010.5
20260509190029 60 94 0.0 0.0 0.00 0.01 0.00 73 1010.5
20260509185529 59 92 0.0 1.0 0.00 0.01 0.00 74 1010.6
20260509185028 59 116 0.0 0.0 0.00 0.01 0.00 74 1010.6
20260509184026 59 62 0.0 2.0 0.00 0.01 0.00 75 1010.6
20260509183525 59 84 0.0 2.0 0.00 0.01 0.00 73 1010.7
20260509183025 60 102 0.0 1.0 0.00 0.01 0.00 74 1010.9
20260509182524 60 52 0.0 1.0 0.00 0.01 0.00 74 1010.8
20260509182026 59 89 0.0 1.0 0.00 0.01 0.00 75 1010.8
20260509181522 59 32 0.0 1.0 0.00 0.01 0.00 75 1010.9
20260509181021 59 98 0.0 1.0 0.00 0.01 0.00 77 1010.9
20260509180523 58 279 0.0 1.0 0.00 0.01 0.00 78 1010.9
20260509180022 58 49 0.0 0.0 0.00 0.01 0.00 78 1010.9
20260509175520 57 35 0.0 0.0 0.00 0.01 0.00 79 1011.0
20260509175019 57 38 0.0 0.0 0.00 0.01 0.00 80 1011.0
20260509174019 56 101 0.0 0.0 0.00 0.01 0.00 80 1011.1
20260509173521 56 43 0.0 0.0 0.00 0.01 0.00 80 1011.3
20260509173019 56 27 0.0 1.0 0.00 0.01 0.00 81 1011.2
20260509172519 56 35 0.0 1.0 0.00 0.01 0.00 81 1010.9
20260509172018 55 101 0.0 0.0 0.00 0.01 0.00 81 1011.5
20260509171517 55 8 0.0 0.0 0.00 0.01 0.00 81 1011.6
20260509171015 55 141 0.0 1.0 0.00 0.01 0.00 80 1011.9
20260509170515 55 114 0.0 1.0 0.00 0.01 0.00 80 1011.8
20260509170015 55 105 0.0 0.0 0.00 0.01 0.00 80 1011.8
20260509165514 55 136 0.0 0.0 0.00 0.01 0.00 79 1011.7
20260509165013 56 64 0.0 0.0 0.00 0.01 0.00 77 1011.7
20260509164014 56 87 0.0 0.0 0.00 0.01 0.00 76 1011.7
20260509163511 56 8 0.0 1.0 0.00 0.01 0.00 76 1011.7
20260509163010 57 97 0.0 1.0 0.00 0.01 0.00 76 1011.7
20260509162510 57 40 0.0 0.0 0.00 0.01 0.00 74 1011.8
20260509162010 57 296 0.0 1.0 0.00 0.01 0.00 73 1011.7
20260509161507 58 105 0.0 1.0 0.00 0.01 0.00 72 1011.8
20260509161008 58 203 0.0 1.0 0.00 0.01 0.00 72 1011.8
20260509160507 58 83 0.0 0.0 0.00 0.01 0.00 72 1011.8
20260509160006 58 73 0.0 0.0 0.00 0.01 0.00 71 1011.8
20260509155506 58 79 0.0 0.0 0.00 0.01 0.00 73 1011.8
20260509155004 58 137 0.0 0.0 0.00 0.01 0.00 73 1011.9
20260509154003 58 83 0.0 1.0 0.00 0.01 0.00 73 1012.0
20260509153501 58 60 0.0 0.0 0.00 0.01 0.00 73 1012.1
20260509153103 58 74 0.0 0.0 0.00 0.01 0.01 72 1012.1
20260509153001 58 90 0.0 0.0 0.00 0.01 0.01 73 1012.1
20260509152559 59 137 0.0 0.0 0.00 0.01 0.01 73 1012.1
20260509152058 58 84 0.0 0.0 0.00 0.01 0.01 73 1012.2
20260509151558 59 22 0.0 0.0 0.00 0.01 0.01 73 1012.1
20260509151056 59 56 0.0 0.0 0.00 0.01 0.01 72 1012.1
20260509150553 59 134 0.0 0.0 0.00 0.01 0.01 73 1012.0
20260509150054 58 312 0.0 0.0 0.00 0.01 0.01 74 1012.1
20260509145551 58 39 0.0 0.0 0.00 0.01 0.01 74 1012.1
20260509145047 58 236 0.0 0.0 0.00 0.01 0.01 74 1012.1
20260509144046 57 219 0.0 1.0 0.00 0.01 0.01 77 1012.3
20260509143546 57 86 0.0 1.0 0.00 0.01 0.01 76 1012.3
20260509143049 57 25 0.0 0.0 0.00 0.01 0.01 78 1012.2
20260509142542 56 114 0.0 0.0 0.00 0.01 0.01 78 1012.0
20260509142045 56 349 0.0 0.0 0.00 0.01 0.01 78 1011.9
20260509141544 56 93 0.0 0.0 0.01 0.01 0.01 80 1011.8
20260509141043 56 68 0.0 0.0 0.01 0.01 0.01 81 1012.1
20260509140537 55 94 0.0 0.0 0.01 0.01 0.01 82 1012.2
20260509140045 55 94 0.0 0.0 0.01 0.01 0.01 81 1012.4
20260509135534 55 71 0.0 0.0 0.01 0.01 0.01 82 1012.5
20260509135036 55 43 0.0 0.0 0.01 0.01 0.01 84 1012.6
20260509134054 54 39 0.0 0.0 0.01 0.01 0.01 85 1012.6
20260509133553 54 199 0.0 0.0 0.01 0.01 0.01 86 1012.8
20260509133051 54 63 0.0 1.0 0.01 0.01 0.01 89 1012.8
20260509132551 53 148 0.0 0.0 0.01 0.01 0.01 90 1012.8
20260509132048 53 288 0.0 0.0 0.01 0.01 0.01 90 1013.0
20260509131546 53 245 0.0 0.0 0.01 0.01 0.01 91 1013.0
20260509131045 52 127 0.0 0.0 0.00 0.00 0.00 92 1013.1
20260509130548 52 74 0.0 0.0 0.00 0.00 0.00 93 1013.1
20260509130047 52 72 0.0 0.0 0.00 0.00 0.00 94 1013.1
20260509125541 52 38 0.0 0.0 0.00 0.00 0.00 94 1013.1
20260509125042 51 275 0.0 0.0 0.00 0.00 0.00 95 1013.0
20260509124028 51 350 0.0 0.0 0.00 0.00 0.00 95 1012.9
20260509123525 50 15 0.0 0.0 0.00 0.00 0.00 95 1012.9
20260509123033 50 4 0.0 0.0 0.00 0.00 0.00 95 1012.9
20260509122523 50 337 0.0 0.0 0.00 0.00 0.00 95 1012.9
20260509122021 49 337 0.0 0.0 0.00 0.00 0.00 95 1013.1
20260509121520 49 337 0.0 0.0 0.00 0.00 0.00 95 1013.1
20260509121019 49 337 0.0 0.0 0.00 0.00 0.00 95 1013.0
20260509120516 48 337 0.0 0.0 0.00 0.00 0.00 95 1013.0
20260509120016 48 337 0.0 0.0 0.00 0.00 0.00 95 1012.9
20260509115513 48 337 0.0 0.0 0.00 0.00 0.00 95 1012.7
20260509115020 48 337 0.0 0.0 0.00 0.00 0.00 95 1012.8
20260509114059 47 319 0.0 0.0 0.00 0.00 0.00 95 1013.0
20260509113559 47 319 0.0 0.0 0.00 0.00 0.00 95 1013.0
20260509113118 47 319 0.0 0.0 0.00 0.00 0.00 94 1013.0
20260509112553 47 319 0.0 0.0 0.00 0.00 0.00 94 1013.2
20260509112051 47 319 0.0 0.0 0.00 0.00 0.00 94 1013.3
20260509111555 0 0.0 0.0 0.00 0.00 0.00 1013.4
20260509111051 0 0.0 0.0 0.00 0.00 0.00 1013.4
20260509110549 0 0.0 0.0 0.00 0.00 0.00 1013.4
20260509110048 0 0.0 0.0 0.00 0.00 0.00 1013.5
20260509105547 0 0.0 0.0 0.00 0.00 0.00 1013.3
20260509105045 0 0.0 0.0 0.00 0.00 0.00 1013.3
20260509104645 0 0.0 0.0 0.00 0.00 0.00 1013.6
20260509104044 0 0.0 0.0 0.00 0.00 0.00 1013.5
20260509103542 0 0.0 0.0 0.00 0.00 0.00 1013.4
20260509103050 0 0.0 0.0 0.00 0.00 0.00 1013.1
20260509102540 0 0.0 0.0 0.00 0.00 0.00 1013.0
20260509102038 0 0.0 0.0 0.00 0.00 0.00 1013.0
20260509101537 0 0.0 0.0 0.00 0.00 0.00 1013.1
20260509101035 0 0.0 0.0 0.00 0.00 0.00 1013.2
20260509100534 0 0.0 0.0 0.00 0.00 0.00 1013.0
20260509100040 0 0.0 0.0 0.00 0.00 0.00 1013.2
20260509095531 0 0.0 0.0 0.00 0.00 0.00 1013.2
20260509095030 0 0.0 0.0 0.00 0.00 0.00 1013.1
20260509094629 0 0.0 0.0 0.00 0.00 0.00 1012.8
20260509094030 0 0.0 0.0 0.00 0.00 0.00 1012.7
20260509093530 0 0.0 0.0 0.00 0.00 0.00 1012.6
20260509093026 0 0.0 0.0 0.00 0.00 0.00 1012.5
20260509092525 0 0.0 0.0 0.00 0.00 0.00 1012.4
20260509092023 0 0.0 0.0 0.00 0.00 0.00 1012.3
20260509091522 -90 3 0.0 0.0 0.00 0.00 0.00 93 1012.2
20260509091020 -90 3 0.0 0.0 0.00 0.00 0.00 93 1012.2
20260509090519 45 3 0.0 0.0 0.00 0.00 0.00 91 1012.0
20260509090019 44 3 0.0 0.0 0.00 0.00 0.00 91 1012.1
20260509085518 44 3 0.0 0.0 0.00 0.00 0.00 91 1012.2
20260509085018 44 3 0.0 0.0 0.00 0.00 0.00 91 1012.1
20260509084618 44 3 0.0 0.0 0.00 0.00 0.00 91 1012.1
20260509084018 44 3 0.0 0.0 0.00 0.00 0.00 90 1012.1
20260509083518 44 3 0.0 0.0 0.00 0.00 0.00 90 1012.0
20260509083024 44 3 0.0 0.0 0.00 0.00 0.00 90 1012.0
20260509082517 44 3 0.0 0.0 0.00 0.00 0.00 90 1012.1
20260509082017 44 3 0.0 0.0 0.00 0.00 0.00 90 1012.0
20260509081517 44 3 0.0 0.0 0.00 0.00 0.00 90 1012.1
20260509081016 44 3 0.0 0.0 0.00 0.00 0.00 90 1012.2
20260509080520 44 3 0.0 0.0 0.00 0.00 0.00 90 1012.1
20260509080016 44 3 0.0 0.0 0.00 0.00 0.00 90 1012.2
20260509075516 44 3 0.0 0.0 0.00 0.00 0.00 90 1012.2
20260509075016 44 3 0.0 0.0 0.00 0.00 0.00 90 1012.2
20260509074615 44 3 0.0 0.0 0.00 0.00 0.00 89 1012.3
20260509074018 44 3 0.0 0.0 0.00 0.00 0.00 89 1012.4
20260509073515 44 3 0.0 0.0 0.00 0.00 0.00 89 1012.4
20260509073015 44 3 0.0 0.0 0.00 0.00 0.00 89 1012.5
20260509072516 44 3 0.0 0.0 0.00 0.00 0.00 89 1012.4
20260509072015 44 3 0.0 0.0 0.00 0.00 0.00 89 1012.6
20260509071514 44 3 0.0 0.0 0.00 0.00 0.00 88 1012.7
20260509071015 44 3 0.0 0.0 0.00 0.00 0.00 88 1012.7
20260509070514 44 3 0.0 0.0 0.00 0.00 0.00 88 1012.6
20260509070014 44 3 0.0 0.0 0.00 0.00 0.00 88 1012.5
20260509065516 44 3 0.0 0.0 0.00 0.00 0.00 88 1012.5
20260509065013 44 3 0.0 0.0 0.00 0.00 0.00 88 1012.6
20260509064614 44 3 0.0 0.0 0.00 0.00 0.00 88 1012.7
20260509064014 44 3 0.0 0.0 0.00 0.00 0.00 88 1012.7
20260509063512 44 3 0.0 0.0 0.00 0.00 0.00 87 1012.6
20260509063012 44 3 0.0 0.0 0.00 0.00 0.00 87 1012.6
20260509062512 44 3 0.0 0.0 0.00 0.00 0.00 87 1012.6
20260509062012 44 3 0.0 0.0 0.00 0.00 0.00 87 1012.6
20260509061529 44 3 0.0 0.0 0.00 0.00 0.00 87 1012.7
20260509061011 43 3 0.0 0.0 0.00 0.00 0.00 88 1012.7
20260509060511 43 3 0.0 0.0 0.00 0.00 0.00 87 1012.6
20260509060011 43 3 0.0 0.0 0.00 0.00 0.00 88 1012.6
20260509055516 43 3 0.0 0.0 0.00 0.00 0.00 88 1012.7
20260509055015 43 3 0.0 0.0 0.00 0.00 0.00 88 1012.6
20260509054610 43 3 0.0 0.0 0.00 0.00 0.00 88 1012.6
20260509054028 43 3 0.0 0.0 0.00 0.00 0.00 88 1012.5
20260509053528 43 3 0.0 0.0 0.00 0.00 0.00 88 1012.5
20260509053049 42 3 0.0 0.0 0.00 0.00 0.00 88 1012.5
20260509052527 42 3 0.0 0.0 0.00 0.00 0.00 87 1012.5
20260509052027 42 3 0.0 0.0 0.00 0.00 0.00 87 1012.5
20260509051526 42 3 0.0 0.0 0.00 0.00 0.00 87 1012.5
20260509051031 41 3 0.0 0.0 0.00 0.00 0.00 86 1012.5
20260509050525 41 3 0.0 0.0 0.00 0.00 0.00 85 1012.5
20260509050025 41 3 0.0 0.0 0.00 0.00 0.00 85 1012.6
20260509045526 41 3 0.0 0.0 0.00 0.00 0.00 84 1012.5
20260509045023 41 3 0.0 0.0 0.00 0.00 0.00 84 1012.5
20260509044624 41 3 0.0 0.0 0.00 0.00 0.00 83 1012.5
20260509044005 41 3 0.0 0.0 0.00 0.00 0.00 83 1012.5
20260509043508 41 3 0.0 0.0 0.00 0.00 0.00 83 1012.4
20260509043003 41 3 0.0 0.0 0.00 0.00 0.00 83 1012.4
20260509042503 41 3 0.0 0.0 0.00 0.00 0.00 82 1012.4
20260509042001 42 3 0.0 0.0 0.00 0.00 0.00 82 1012.3
20260509041601 42 3 0.0 0.0 0.00 0.00 0.00 82 1012.3
20260509041059 42 3 0.0 0.0 0.00 0.00 0.00 82 1012.2
20260509040558 42 3 0.0 0.0 0.00 0.00 0.00 81 1012.2
20260509040100 42 3 0.0 0.0 0.00 0.00 0.00 81 1012.2
20260509035557 42 3 0.0 0.0 0.00 0.00 0.00 80 1012.3
20260509035057 42 3 0.0 0.0 0.00 0.00 0.00 79 1012.1
20260509034603 43 3 0.0 0.0 0.00 0.00 0.00 79 1012.1
20260509034055 43 3 0.0 0.0 0.00 0.00 0.00 79 1012.1
20260509033557 43 3 0.0 0.0 0.00 0.00 0.00 78 1012.1
20260509033055 43 3 0.0 0.0 0.00 0.00 0.00 77 1012.1
20260509032554 43 3 0.0 0.0 0.00 0.00 0.00 76 1012.1
20260509032052 44 3 0.0 0.0 0.00 0.00 0.00 75 1012.1
20260509031552 44 3 0.0 0.0 0.00 0.00 0.00 75 1012.1
20260509031051 44 3 0.0 0.0 0.00 0.00 0.00 74 1012.0
20260509030550 44 3 0.0 0.0 0.00 0.00 0.00 74 1012.0
20260509030049 45 3 0.0 0.0 0.00 0.00 0.00 73 1012.0
20260509025548 45 3 0.0 0.0 0.00 0.00 0.00 72 1012.0
20260509025147 45 3 0.0 0.0 0.00 0.00 0.00 71 1012.0
20260509024550 45 3 0.0 0.0 0.00 0.00 0.00 70 1011.9
20260509024047 45 3 0.0 0.0 0.00 0.00 0.00 70 1011.9
20260509023648 45 3 0.0 0.0 0.00 0.00 0.00 70 1011.9
20260509023044 46 3 0.0 0.0 0.00 0.00 0.00 69 1011.8
20260509022545 46 3 0.0 0.0 0.00 0.00 0.00 68 1011.8
20260509022042 46 3 0.0 0.0 0.00 0.00 0.00 68 1011.8
20260509021542 46 3 0.0 0.0 0.00 0.00 0.00 68 1011.7
20260509021042 46 3 0.0 0.0 0.00 0.00 0.00 66 1011.7
20260509020539 47 3 0.0 0.0 0.00 0.00 0.00 66 1011.7
20260509020040 47 3 0.0 0.0 0.00 0.00 0.00 65 1011.6
20260509015537 47 3 0.0 0.0 0.00 0.00 0.00 64 1011.4
20260509015042 48 3 0.0 0.0 0.00 0.00 0.00 63 1011.3
20260509014536 48 3 0.0 0.0 0.00 0.00 0.00 62 1011.3
20260509014038 48 3 0.0 0.0 0.00 0.00 0.00 62 1011.3
20260509013536 49 3 0.0 0.0 0.00 0.00 0.00 61 1011.2
20260509013036 49 3 0.0 0.0 0.00 0.00 0.00 60 1011.1
20260509012535 49 3 0.0 0.0 0.00 0.00 0.00 59 1011.1
20260509012033 50 3 0.0 0.0 0.00 0.00 0.00 58 1011.0
20260509011532 50 3 0.0 0.0 0.00 0.00 0.00 57 1010.9
20260509011030 51 3 0.0 0.0 0.00 0.00 0.00 56 1010.8
20260509010528 51 3 0.0 0.0 0.00 0.00 0.00 55 1010.7
20260509010028 52 3 0.0 0.0 0.00 0.00 0.00 54 1010.5
20260509005525 52 3 0.0 0.0 0.00 0.00 0.00 53 1010.4
20260509005023 53 259 0.0 0.0 0.00 0.00 0.00 52 1010.4
20260509004534 53 259 0.0 0.0 0.00 0.00 0.00 50 1010.2
20260509004026 53 259 0.0 0.0 0.00 0.00 0.00 51 1010.2
20260509003529 54 304 0.0 0.0 0.00 0.00 0.00 50 1010.1
20260509003024 54 235 0.0 0.0 0.00 0.00 0.00 48 1010.0
20260509002522 54 183 0.0 0.0 0.00 0.00 0.00 48 1009.9
20260509002022 54 243 0.0 0.0 0.00 0.00 0.00 47 1009.8
20260509001521 55 227 0.0 0.0 0.00 0.00 0.00 47 1009.7
20260509001020 55 233 0.0 0.0 0.00 0.00 0.00 47 1009.6
20260509000519 55 70 0.0 0.0 0.00 0.00 0.00 47 1009.4
20260509000018 55 239 0.0 0.0 0.00 0.00 0.00 47 1009.3
20260508235518 55 212 0.0 0.0 0.00 0.00 0.00 47 1009.3
20260508235016 55 228 0.0 0.0 0.00 0.00 0.00 47 1009.2
20260508234514 56 206 0.0 0.0 0.00 0.00 0.00 46 1008.9
20260508234009 56 23 0.0 0.0 0.00 0.00 0.00 46 1008.9
20260508233508 56 270 0.0 0.0 0.00 0.00 0.00 47 1008.8
20260508233007 56 302 0.0 0.0 0.00 0.00 0.00 46 1008.7
20260508232505 57 233 0.0 0.0 0.00 0.00 0.00 46 1008.7
20260508232006 57 186 0.0 0.0 0.00 0.00 0.00 46 1008.7
20260508231508 57 297 0.0 0.0 0.00 0.00 0.00 45 1008.6
20260508231004 57 32 0.0 0.0 0.00 0.00 0.00 47 1008.6
20260508230502 57 208 0.0 0.0 0.00 0.00 0.00 47 1008.5
20260508230004 57 231 0.0 0.0 0.00 0.00 0.00 47 1008.5
20260508225502 58 226 0.0 0.0 0.00 0.00 0.00 48 1008.6
20260508225002 58 229 0.0 0.0 0.00 0.00 0.00 47 1008.5
20260508224501 58 134 0.0 0.0 0.00 0.00 0.00 48 1008.4
20260508224001 58 110 0.0 0.0 0.00 0.00 0.00 49 1008.4
20260508223500 59 252 0.0 0.0 0.00 0.00 0.00 47 1008.4
20260508223100 59 229 0.0 0.0 0.00 0.00 0.00 46 1008.4
20260508222600 60 2 0.0 0.0 0.00 0.00 0.00 46 1008.3
20260508222100 60 240 0.0 1.0 0.00 0.00 0.00 46 1008.3
20260508221600 61 243 0.0 1.0 0.00 0.00 0.00 43 1008.3
20260508221059 61 162 0.0 1.0 0.00 0.00 0.00 44 1008.3
20260508220559 61 221 0.0 1.0 0.00 0.00 0.00 44 1008.3
20260508215558 62 53 0.0 1.0 0.00 0.00 0.00 43 1008.2
20260508215058 61 239 0.0 1.0 0.00 0.00 0.00 44 1008.2
20260508214641 61 210 0.0 0.0 0.00 0.00 0.00 43 1008.1
20260508213601 61 239 0.0 0.0 0.00 0.00 0.00 43 1008.2
20260508213059 61 167 0.0 0.0 0.00 0.00 0.00 43 1008.2
20260508212559 62 104 0.0 1.0 0.00 0.00 0.00 43 1008.2
20260508212058 62 224 0.0 1.0 0.00 0.00 0.00 43 1008.2
20260508211558 62 232 0.0 1.0 0.00 0.00 0.00 43 1008.1
20260508211058 62 228 0.0 0.0 0.00 0.00 0.00 44 1008.1
20260508210557 62 229 0.0 1.0 0.00 0.00 0.00 47 1008.1
20260508210058 61 202 0.0 2.0 0.00 0.00 0.00 45 1008.0
20260508205557 62 238 0.0 1.0 0.00 0.00 0.00 44 1007.9
20260508205058 61 20 0.0 1.0 0.00 0.00 0.00 46 1007.9
20260508204600 61 231 0.0 0.0 0.00 0.00 0.00 45 1007.9
20260508203557 61 211 0.0 0.0 0.00 0.00 0.00 47 1007.9
20260508203117 61 195 0.0 0.0 0.00 0.00 0.00 46 1007.9
20260508202557 61 221 0.0 0.0 0.00 0.00 0.00 46 1007.8
20260508202057 61 26 0.0 0.0 0.00 0.00 0.00 44 1007.8
20260508201558 61 27 0.0 0.0 0.00 0.00 0.00 44 1007.6
20260508201056 61 181 0.0 0.0 0.00 0.00 0.00 48 1007.7
20260508200556 60 223 0.0 0.0 0.00 0.00 0.00 46 1007.7
20260508200059 60 224 0.0 0.0 0.00 0.00 0.00 47 1007.7
20260508195555 59 170 0.0 0.0 0.00 0.00 0.00 54 1007.6
20260508195056 58 319 0.0 6.0 0.00 0.00 0.00 53 1007.8
20260508194556 58 219 0.0 5.0 0.00 0.00 0.00 49 1008.0
20260508193553 59 275 0.0 5.0 0.00 0.00 0.00 47 1007.8
20260508193123 59 321 0.0 5.0 0.00 0.00 0.00 46 1007.8
20260508192553 59 56 0.0 5.0 0.00 0.00 0.00 45 1007.6